• Join FlightAware (Why Join?)
  • Login
  • US Flag 
11:21AM EST


 

Airport Tracker/Info


-or-


 

Live Flight TrackerFlight Track Log ✈ AWI3963 ✈ 23-Apr-2012 ✈ KDCA - KORF

Flight Track Log - Related Links

Times and Time Zones

All times are in EDT time to prevent confusion due to time zone crossing. See the AWI3963 flight status page for this flight to view local times or setup timezone preferences in your user account.

Time Position Orientation Groundspeed Altitude Reporting Facility
EDT Latitude Longitude Course Direction KTS MPH feet Rate Location/Type
12:02AM 38.7942 -77.0325 144° Southeast 199 229 2,200  Level Washington Center
12:03AM 38.7364 -76.9783 130° Southeast 292 336 5,100 3,076 Climbing Washington Center
12:04AM 38.6833 -76.8975 133° Southeast 309 356 8,300 3,203 Climbing Washington Center
12:05AM 38.6236 -76.8142 136° Southeast 319 367 11,400 2,231 Climbing Washington Center
12:06AM 38.5536 -76.7281 171° South 324 373 12,800 1,200 Climbing Washington Center
12:07AM 38.4494 -76.7078 176° South 345 397 13,800 610 Climbing Washington Center
12:08AM 38.3411 -76.6983 174° South 376 433 14,000 99 Climbing Washington Center
12:09AM 38.2328 -76.6833 172° South 386 444 14,000  Level Washington Center
12:10AM 38.1247 -76.6633 153° Southeast 391 450 14,000  Level Washington Center
12:11AM 38.0250 -76.5986 152° Southeast 391 450 14,000 -458 Level Washington Center
12:12AM 37.9275 -76.5342 156° South 391 450 13,100 -1,000 Descending Washington Center
12:13AM 37.8403 -76.4858 154° Southeast 390 449 12,100 -1,100 Descending Washington Center
12:14AM 37.7325 -76.4189 153° Southeast 385 443 10,900 -837 Descending Washington Center
12:15AM 37.6369 -76.3575 164° South 382 440 10,300 -443 Descending Washington Center
12:16AM 37.5411 -76.3225 164° South 374 430 10,000 -200 Descending Washington Center
12:17AM 37.4494 -76.2903 166° South 357 411 9,900 -966 Descending Washington Center
12:18AM 37.3725 -76.2661 165° South 321 369 8,100 -1,800 Descending Washington Center
12:19AM 37.2933 -76.2392 164° South 303 349 6,300 -1,623 Descending Washington Center
12:20AM 37.2183 -76.2125 166° South 291 335 4,800 -1,513 Descending Washington Center
12:21AM 37.1414 -76.1886 165° South 286 329 3,300 -1,282 Descending Washington Center
12:22AM 37.0725 -76.1647 166° South 275 316 2,300 -677 Descending Washington Center
12:24AM 37.0039 -76.1433 182° South 218 251 1,900 -441 Descending Washington Center
12:25AM 36.9517 -76.1456 218° Southwest 155 178 1,300 -600 Descending Washington Center
12:26AM 36.9225 -76.1739 218° Southwest 127 146 600 -700 Descending Washington Center